TimeCET,TemperatureF,Dew PointF,Humidity,Sea Level PressureIn,VisibilityMPH,Wind Direction,Wind SpeedMPH,Gust SpeedMPH,PrecipitationIn,Events,Conditions,WindDirDegrees,DateUTC
12:00 AM,35.6,33.8,93,29.92,6.2,Variable,3.5,-,N/A,,Overcast,0,2013-02-04 23:00:00
12:30 AM,35.6,35.6,100,29.92,6.2,Variable,2.3,-,N/A,,Overcast,0,2013-02-04 23:30:00
1:00 AM,35.6,35.6,100,29.92,6.2,Variable,2.3,-,N/A,,Overcast,0,2013-02-05 00:00:00
1:30 AM,35.6,35.6,100,29.92,6.2,Variable,2.3,-,N/A,Rain,Light Rain,0,2013-02-05 00:30:00
2:00 AM,35.6,35.6,100,29.95,6.2,SSE,4.6,-,N/A,,Mostly Cloudy,160,2013-02-05 01:00:00
2:30 AM,35.6,35.6,100,29.92,6.2,East,4.6,-,N/A,,Mostly Cloudy,100,2013-02-05 01:30:00
3:00 AM,35.6,35.6,100,29.95,6.2,Variable,1.2,-,N/A,Rain-Snow,Light Rain,0,2013-02-05 02:00:00
3:30 AM,33.8,33.8,100,29.92,6.2,SE,4.6,-,N/A,Rain-Snow,Light Rain,130,2013-02-05 02:30:00
4:00 AM,35.6,35.6,100,29.92,6.2,Variable,3.5,-,N/A,,Mostly Cloudy,0,2013-02-05 03:00:00
4:30 AM,35.6,35.6,100,29.92,6.2,Variable,3.5,-,N/A,,Scattered Clouds,0,2013-02-05 03:30:00
5:00 AM,33.8,33.8,100,29.92,6.2,Variable,3.5,-,N/A,,Scattered Clouds,0,2013-02-05 04:00:00
5:30 AM,32.0,32.0,100,29.89,-9999.0,Variable,3.5,-,N/A,,Clear,0,2013-02-05 04:30:00
6:00 AM,33.8,33.8,100,29.89,-9999.0,SSE,4.6,-,N/A,,Clear,150,2013-02-05 05:00:00
6:30 AM,32.0,32.0,100,29.89,-9999.0,SE,4.6,-,N/A,,Clear,130,2013-02-05 05:30:00
7:00 AM,30.2,30.2,100,29.89,-9999.0,ESE,4.6,-,N/A,,Clear,110,2013-02-05 06:00:00
7:30 AM,33.8,33.8,100,29.89,-9999.0,South,6.9,-,N/A,,Clear,180,2013-02-05 06:30:00
8:00 AM,32.0,32.0,100,29.89,-9999.0,Variable,3.5,-,N/A,,Clear,0,2013-02-05 07:00:00
8:30 AM,32.0,32.0,100,29.89,-9999.0,ESE,4.6,-,N/A,,Clear,120,2013-02-05 07:30:00
9:00 AM,33.8,33.8,100,29.86,-9999.0,ESE,5.8,-,N/A,,Clear,120,2013-02-05 08:00:00
9:30 AM,33.8,33.8,100,29.86,-9999.0,Variable,3.5,-,N/A,,Clear,0,2013-02-05 08:30:00
10:00 AM,35.6,35.6,100,29.86,-9999.0,SSE,5.8,-,N/A,,Clear,150,2013-02-05 09:00:00
10:30 AM,37.4,35.6,93,29.86,-9999.0,SSE,4.6,-,N/A,,Clear,150,2013-02-05 09:30:00
11:00 AM,37.4,32.0,81,29.86,-9999.0,South,9.2,-,N/A,,Clear,180,2013-02-05 10:00:00
11:30 AM,39.2,35.6,87,29.83,-9999.0,South,8.1,-,N/A,,Clear,190,2013-02-05 10:30:00
12:00 PM,39.2,33.8,81,29.83,-9999.0,South,9.2,-,N/A,,Clear,190,2013-02-05 11:00:00
12:30 PM,39.2,33.8,81,29.80,6.2,South,9.2,-,N/A,,Mostly Cloudy,180,2013-02-05 11:30:00
1:00 PM,39.2,33.8,81,29.80,6.2,South,10.4,-,N/A,,Mostly Cloudy,170,2013-02-05 12:00:00
1:30 PM,41.0,33.8,76,29.77,6.2,SSE,9.2,-,N/A,,Mostly Cloudy,160,2013-02-05 12:30:00
2:00 PM,41.0,33.8,76,29.74,6.2,SSE,9.2,-,N/A,,Mostly Cloudy,160,2013-02-05 13:00:00
2:30 PM,42.8,33.8,70,29.74,6.2,SSE,8.1,-,N/A,,Mostly Cloudy,160,2013-02-05 13:30:00
3:00 PM,42.8,33.8,70,29.71,6.2,SSE,10.4,-,N/A,,Mostly Cloudy,160,2013-02-05 14:00:00
3:30 PM,42.8,32.0,66,29.68,6.2,SSE,12.7,-,N/A,,Mostly Cloudy,160,2013-02-05 14:30:00
4:00 PM,42.8,32.0,66,29.68,6.2,South,10.4,-,N/A,,Mostly Cloudy,180,2013-02-05 15:00:00
4:30 PM,42.8,33.8,70,29.68,6.2,South,10.4,-,N/A,,Mostly Cloudy,190,2013-02-05 15:30:00
5:00 PM,42.8,33.8,70,29.68,6.2,South,10.4,-,N/A,,Mostly Cloudy,190,2013-02-05 16:00:00
5:30 PM,42.8,33.8,70,29.68,6.2,SSW,8.1,-,N/A,,Overcast,210,2013-02-05 16:30:00
6:00 PM,42.8,33.8,70,29.68,6.2,South,8.1,-,N/A,,Mostly Cloudy,180,2013-02-05 17:00:00
6:30 PM,41.0,35.6,81,29.68,-9999.0,South,8.1,-,N/A,,Clear,180,2013-02-05 17:30:00
7:00 PM,41.0,33.8,76,29.65,-9999.0,South,8.1,-,N/A,,Clear,190,2013-02-05 18:00:00
7:30 PM,41.0,33.8,76,29.65,-9999.0,South,5.8,-,N/A,,Clear,180,2013-02-05 18:30:00
8:00 PM,41.0,35.6,81,29.65,-9999.0,SSW,5.8,-,N/A,,Clear,200,2013-02-05 19:00:00
8:30 PM,41.0,37.4,87,29.65,-9999.0,Variable,3.5,-,N/A,,Clear,0,2013-02-05 19:30:00
9:00 PM,39.2,35.6,87,29.68,-9999.0,Variable,2.3,-,N/A,,Clear,0,2013-02-05 20:00:00
9:30 PM,37.4,35.6,93,29.65,-9999.0,SE,4.6,-,N/A,,Clear,130,2013-02-05 20:30:00
10:00 PM,37.4,35.6,93,29.65,-9999.0,SE,6.9,-,N/A,,Clear,130,2013-02-05 21:00:00
10:30 PM,35.6,32.0,87,29.65,-9999.0,ESE,5.8,-,N/A,,Clear,120,2013-02-05 21:30:00
11:00 PM,33.8,32.0,93,29.62,-9999.0,SSE,5.8,-,N/A,,Clear,160,2013-02-05 22:00:00
11:30 PM,33.8,32.0,93,29.62,-9999.0,ESE,4.6,-,N/A,,Clear,110,2013-02-05 22:30:00